Location: Newark
(41.6500°N, 71.4833°W)
Time: 23:17:01
(UTC+00:00)

Envisat - Visible Passes

Search period start: 08 December 2019 00:00
Search period end: 18 December 2019 00:00
Orbit: 764 x 766 km, 98.1° (Epoch: 08 December)

Date Brightness Start Highest point End Pass type
(mag) Time Alt. Az. Time Alt. Az. Time Alt. Az.
08 Dec 4.8 10:57:39 10° NNE 11:02:18 35° E 11:06:55 10° SSE visible
08 Dec 3.2 22:12:14 10° SE 22:17:05 47° ENE 22:21:57 10° N visible
08 Dec 5.5 23:52:36 10° SW 23:56:20 20° W 00:00:05 10° NW visible
09 Dec 6.0 10:22:08 10° NE 10:25:14 16° E 10:28:17 10° SE visible
09 Dec 4.1 23:14:28 10° S 23:19:19 45° W 23:24:11 10° NNW visible
10 Dec 3.7 11:22:50 10° NNE 11:27:54 62° E 11:32:54 10° S visible
10 Dec 2.9 22:37:25 10° SSE 22:42:29 82° ENE 22:47:36 10° N visible
11 Dec 6.2 00:20:35 10° WSW 00:22:07 11° W 00:23:39 10° WNW visible
11 Dec 5.3 10:46:37 10° NE 10:50:57 28° E 10:55:17 10° SSE visible
11 Dec 3.5 22:01:13 10° SE 22:05:52 37° ENE 22:10:32 10° N visible
11 Dec 5.1 23:40:46 10° SSW 23:44:57 26° W 23:49:10 10° NW visible
12 Dec 6.2 10:11:44 10° ENE 10:13:49 12° E 10:15:54 10° ESE visible
12 Dec 3.6 23:03:01 10° S 23:07:59 57° W 23:13:01 10° NNW visible
13 Dec 4.1 11:11:39 10° NNE 11:16:35 49° E 11:21:29 10° S visible
13 Dec 2.9 22:26:13 10° SSE 22:31:14 65° ENE 22:36:17 10° N visible
14 Dec 5.9 00:07:55 10° WSW 00:10:42 15° W 00:13:29 10° WNW visible
14 Dec 5.6 10:35:39 10° NE 10:39:35 22° E 10:43:30 10° SE visible
14 Dec 3.7 21:50:17 10° SE 21:54:40 30° ENE 21:59:04 10° N visible
14 Dec 4.7 23:29:05 10° SSW 23:33:36 32° W 23:38:09 10° NNW visible
15 Dec 3.2 22:51:38 10° S 22:56:42 73° WSW 23:01:47 10° NNW visible
16 Dec 4.6 11:00:31 10° NNE 11:05:15 38° E 11:09:58 10° SSE visible
16 Dec 3.1 22:15:06 10° SSE 22:19:59 51° ENE 22:24:55 10° N visible
16 Dec 5.6 23:55:47 10° SW 23:59:18 19° W 00:02:50 10° NW visible
17 Dec 5.9 10:24:50 10° NE 10:28:12 18° E 10:31:33 10° SE visible
17 Dec 4.0 21:39:27 10° ESE 21:43:28 24° ENE 21:47:32 10° NNE visible
17 Dec 4.3 23:17:30 10° SSW 23:22:15 41° W 23:27:03 10° NNW visible
